TimeCDT,TemperatureF,Dew PointF,Humidity,Sea Level PressureIn,VisibilityMPH,Wind Direction,Wind SpeedMPH,Gust SpeedMPH,PrecipitationIn,Events,Conditions,WindDirDegrees,DateUTC
12:14 AM,75.2,71.6,89,29.82,7.0,SSE,6.9,-,N/A,,Clear,160,2013-08-21 05:14:00
12:33 AM,75.2,71.6,89,29.82,5.0,South,6.9,-,N/A,,Clear,180,2013-08-21 05:33:00
12:54 AM,75.2,71.6,89,29.81,5.0,Calm,Calm,-,N/A,,Clear,0,2013-08-21 05:54:00
1:14 AM,75.2,71.6,89,29.82,5.0,South,4.6,-,N/A,,Clear,180,2013-08-21 06:14:00
1:33 AM,73.4,71.6,94,29.82,4.0,SE,4.6,-,N/A,,Clear,140,2013-08-21 06:33:00
1:54 AM,73.4,71.6,94,29.82,3.0,SSE,5.8,-,N/A,,Clear,160,2013-08-21 06:54:00
2:14 AM,73.4,71.6,94,29.82,3.0,South,3.5,-,N/A,,Clear,180,2013-08-21 07:14:00
2:33 AM,71.6,69.8,94,29.80,3.0,South,5.8,-,N/A,,Clear,170,2013-08-21 07:33:00
2:54 AM,73.4,71.6,94,29.80,3.0,South,3.5,-,N/A,,Clear,190,2013-08-21 07:54:00
3:14 AM,73.4,71.6,94,29.79,5.0,Calm,Calm,-,N/A,,Clear,0,2013-08-21 08:14:00
3:33 AM,73.4,71.6,94,29.80,4.0,Calm,Calm,-,N/A,,Clear,0,2013-08-21 08:33:00
3:54 AM,73.4,69.8,88,29.80,4.0,Calm,Calm,-,N/A,,Clear,0,2013-08-21 08:54:00
4:13 AM,73.4,71.6,94,29.80,4.0,SSW,3.5,-,N/A,,Clear,210,2013-08-21 09:13:00
4:33 AM,73.4,71.6,94,29.80,4.0,SSW,3.5,-,N/A,,Clear,210,2013-08-21 09:33:00
4:54 AM,73.4,71.6,94,29.80,4.0,WSW,3.5,-,N/A,,Clear,240,2013-08-21 09:54:00
5:13 AM,73.4,71.6,94,29.81,5.0,SW,5.8,-,N/A,,Clear,230,2013-08-21 10:13:00
5:33 AM,73.4,69.8,88,29.82,5.0,SW,4.6,-,N/A,,Clear,230,2013-08-21 10:33:00
5:54 AM,71.6,68.0,88,29.82,5.0,WNW,3.5,-,N/A,,Clear,290,2013-08-21 10:54:00
6:13 AM,71.6,69.8,94,29.83,4.0,West,3.5,-,N/A,,Clear,260,2013-08-21 11:13:00
6:33 AM,73.4,71.6,94,29.84,5.0,WSW,9.2,-,N/A,,Clear,240,2013-08-21 11:33:00
6:54 AM,75.2,71.6,89,29.85,7.0,West,6.9,-,N/A,,Clear,260,2013-08-21 11:54:00
7:13 AM,75.2,71.6,89,29.86,5.0,West,8.1,-,N/A,,Scattered Clouds,260,2013-08-21 12:13:00
7:33 AM,75.2,71.6,89,29.86,5.0,West,6.9,-,N/A,,Scattered Clouds,260,2013-08-21 12:33:00
7:54 AM,75.2,71.6,89,29.87,5.0,West,5.8,-,N/A,,Haze,270,2013-08-21 12:54:00
8:13 AM,75.2,71.6,89,29.87,5.0,WNW,5.8,-,N/A,,Clear,300,2013-08-21 13:13:00
8:34 AM,77.0,71.6,83,29.88,5.0,WNW,3.5,-,N/A,,Haze,300,2013-08-21 13:34:00
8:54 AM,78.8,73.4,83,29.89,7.0,WNW,4.6,-,N/A,,Clear,290,2013-08-21 13:54:00
9:13 AM,80.6,73.4,79,29.89,7.0,WNW,5.8,-,N/A,,Clear,300,2013-08-21 14:13:00
9:33 AM,80.6,73.4,79,29.90,7.0,NNW,10.4,-,N/A,,Clear,330,2013-08-21 14:33:00
9:54 AM,80.6,73.4,79,29.90,10.0,NNW,12.7,-,N/A,,Clear,340,2013-08-21 14:54:00
10:13 AM,78.8,73.4,83,29.91,10.0,NNW,11.5,-,N/A,,Clear,340,2013-08-21 15:13:00
10:33 AM,77.0,69.8,78,29.92,10.0,NNW,10.4,17.3,N/A,,Clear,340,2013-08-21 15:33:00
10:54 AM,77.0,69.8,78,29.92,10.0,NNW,12.7,-,N/A,,Clear,340,2013-08-21 15:54:00
11:13 AM,77.0,69.8,78,29.93,10.0,North,10.4,-,N/A,,Clear,350,2013-08-21 16:13:00
11:33 AM,78.8,69.8,74,29.93,10.0,North,9.2,-,N/A,,Clear,350,2013-08-21 16:33:00
11:54 AM,80.6,69.8,70,29.93,10.0,NNW,6.9,-,N/A,,Clear,340,2013-08-21 16:54:00
12:13 PM,80.6,69.8,70,29.94,10.0,North,9.2,-,N/A,,Clear,360,2013-08-21 17:13:00
12:33 PM,80.6,69.8,70,29.94,10.0,North,6.9,-,N/A,,Clear,350,2013-08-21 17:33:00
12:54 PM,80.6,69.8,70,29.94,10.0,North,4.6,-,N/A,,Clear,10,2013-08-21 17:54:00
1:13 PM,82.4,71.6,70,29.95,10.0,North,3.5,-,N/A,,Clear,360,2013-08-21 18:13:00
1:33 PM,82.4,71.6,70,29.96,10.0,Calm,Calm,-,N/A,,Clear,0,2013-08-21 18:33:00
1:54 PM,84.2,71.6,66,29.96,10.0,Calm,Calm,-,N/A,,Clear,0,2013-08-21 18:54:00
2:13 PM,84.2,71.6,66,29.96,10.0,North,3.5,-,N/A,,Clear,360,2013-08-21 19:13:00
2:33 PM,84.2,71.6,66,29.96,10.0,NNE,4.6,-,N/A,,Clear,30,2013-08-21 19:33:00
2:54 PM,86.0,71.6,62,29.96,10.0,NNW,4.6,-,N/A,,Clear,340,2013-08-21 19:54:00
3:13 PM,86.0,71.6,62,29.96,10.0,NNE,5.8,-,N/A,,Clear,20,2013-08-21 20:13:00
3:33 PM,87.8,71.6,58,29.96,10.0,NNE,9.2,-,N/A,,Clear,30,2013-08-21 20:33:00
3:54 PM,87.8,69.8,55,29.96,10.0,North,9.2,-,N/A,,Clear,10,2013-08-21 20:54:00
4:13 PM,87.8,69.8,55,29.96,10.0,NNE,8.1,-,N/A,,Clear,30,2013-08-21 21:13:00
4:33 PM,87.8,69.8,55,29.95,10.0,NE,4.6,-,N/A,,Clear,40,2013-08-21 21:33:00
4:53 PM,89.6,68.0,49,29.95,10.0,NNE,10.4,-,N/A,,Clear,20,2013-08-21 21:53:00
5:13 PM,87.8,66.2,49,29.96,10.0,NNE,8.1,-,N/A,,Clear,20,2013-08-21 22:13:00
5:34 PM,84.2,66.2,55,29.96,10.0,NNE,5.8,-,N/A,,Clear,20,2013-08-21 22:34:00
5:53 PM,84.2,68.0,58,29.95,10.0,NNE,6.9,-,N/A,,Clear,20,2013-08-21 22:53:00
6:13 PM,82.4,69.8,66,29.95,10.0,NNE,5.8,-,N/A,,Clear,20,2013-08-21 23:13:00
6:34 PM,82.4,68.0,62,29.96,10.0,NNE,4.6,-,N/A,,Clear,30,2013-08-21 23:34:00
6:53 PM,82.4,68.0,62,29.97,10.0,Calm,Calm,-,N/A,,Clear,0,2013-08-21 23:53:00
7:13 PM,82.4,68.0,62,29.97,10.0,Calm,Calm,-,N/A,,Clear,0,2013-08-22 00:13:00
7:34 PM,80.6,66.2,61,29.98,10.0,North,5.8,-,N/A,,Clear,10,2013-08-22 00:34:00
7:53 PM,78.8,66.2,65,29.99,10.0,North,6.9,-,N/A,,Clear,10,2013-08-22 00:53:00
8:13 PM,78.8,64.4,61,29.98,10.0,North,6.9,-,N/A,,Clear,10,2013-08-22 01:13:00
8:34 PM,77.0,62.6,61,29.98,10.0,NNE,8.1,-,N/A,,Clear,20,2013-08-22 01:34:00
8:53 PM,77.0,62.6,61,30.00,10.0,North,4.6,-,N/A,,Scattered Clouds,10,2013-08-22 01:53:00
9:13 PM,75.2,62.6,65,30.00,10.0,NNE,6.9,-,N/A,,Scattered Clouds,20,2013-08-22 02:13:00
9:34 PM,75.2,62.6,65,30.00,10.0,NNE,6.9,-,N/A,,Clear,20,2013-08-22 02:34:00
9:53 PM,73.4,62.6,69,30.01,10.0,North,4.6,-,N/A,,Clear,10,2013-08-22 02:53:00
10:13 PM,73.4,62.6,69,30.02,10.0,NNE,5.8,-,N/A,,Clear,20,2013-08-22 03:13:00
10:34 PM,73.4,62.6,69,30.01,10.0,NNE,6.9,-,N/A,,Clear,20,2013-08-22 03:34:00
10:53 PM,73.4,62.6,69,30.01,10.0,NNE,6.9,-,N/A,,Clear,20,2013-08-22 03:53:00
11:13 PM,71.6,64.4,78,30.01,10.0,North,6.9,-,N/A,,Clear,10,2013-08-22 04:13:00
11:34 PM,71.6,62.6,73,30.02,10.0,North,6.9,-,N/A,,Clear,10,2013-08-22 04:34:00
11:53 PM,71.6,62.6,73,30.03,10.0,NNE,6.9,-,N/A,,Clear,20,2013-08-22 04:53:00